Longville, MN

8:50 PM CDT on July 25, 2017 (GMT -0500)
Longville Municipal

Weather History for KXVG - September, 2013

Change the Weather History Date:

Monday, September 30, 2013

  Actual Average (KPWC) Record (KPWC)
Temperature  
Mean Temperature 62 °F -  
Max Temperature 73 °F 59 °F 78 °F (2000)
Min Temperature 51 °F 37 °F 30 °F (2003)
Degree Days  
Heating Degree Days 3    
Growing Degree Days 12 (Base 50)    
Moisture  
Dew Point 51 °F    
Average Humidity 66    
Maximum Humidity 88    
Minimum Humidity 50    
Precipitation  
Precipitation 0.00 in - - ()
Sea Level Pressure  
Sea Level Pressure 29.59 in    
Wind  
Wind Speed 6 mph (SSE)    
Max Wind Speed 13 mph    
Max Gust Speed 18 mph    
Visibility 10 miles    
Events      
Averages and records for this station are not official NWS values.
T = Trace of Precipitation, MM = Missing Value Source: NWS Daily Summary

Daily Weather History Graph

Daily Weather History Graph

Search for Another Location

Airport or City:

Trip Planner

Search our weather history database for the weather conditions in past years. The results will help you decide how hot, cold, wet, or windy it might be!

Date:

Astronomy

Sep. 30, 2013 Rise Set
Actual Time 7:14 AM CDT 6:57 PM CDT
Civil Twilight 6:44 AM CDT 7:28 PM CDT
Nautical Twilight 6:08 AM CDT 8:03 PM CDT
Astronomical Twilight 5:32 AM CDT 8:39 PM CDT
Moon 2:37 AM CDT (9/30) 4:41 PM CDT (9/30)
Length of Visible Light 12h 43m
Length of Day
11h 43m
Waning Crescent, 19% of the Moon is Illuminated
Sep 30
Waning Crescent
Oct 4
New
Oct 11
First Quarter
Oct 18
Full
Oct 26
Last Quarter

Hourly Weather History & Observations

Time (CDT) Temp. Dew Point Humidity Pressure Visibility Wind Dir Wind Speed Gust Speed Precip Events Conditions
12:16 AM 55.4 °F 48.2 °F 77% 29.66 in 10.0 mi SE 3.5 mph - N/A   Clear
12:36 AM 53.6 °F 48.2 °F 82% 29.65 in 10.0 mi SE 3.5 mph - N/A   Clear
12:56 AM 51.8 °F 48.2 °F 88% 29.64 in 10.0 mi Calm Calm - N/A   Clear
1:16 AM 51.8 °F 48.2 °F 88% 29.63 in 10.0 mi SE 3.5 mph - N/A   Clear
1:36 AM 59.0 °F 48.2 °F 67% 29.63 in 10.0 mi SSE 8.1 mph 16.1 mph N/A   Clear
1:56 AM 60.8 °F 46.4 °F 59% 29.63 in 10.0 mi SSE 12.7 mph 18.4 mph N/A   Clear
2:16 AM 62.6 °F 46.4 °F 55% 29.63 in 10.0 mi South 9.2 mph 18.4 mph N/A   Clear
2:36 AM 60.8 °F 46.4 °F 59% 29.62 in 10.0 mi SSE 10.4 mph - N/A   Clear
2:56 AM 60.8 °F 46.4 °F 59% 29.61 in 10.0 mi SSE 9.2 mph - N/A   Clear
3:16 AM 60.8 °F 46.4 °F 59% 29.61 in 10.0 mi South 9.2 mph - N/A   Clear
3:36 AM 60.8 °F 46.4 °F 59% 29.60 in 10.0 mi South 10.4 mph - N/A   Clear
3:56 AM 60.8 °F 46.4 °F 59% 29.59 in 10.0 mi South 10.4 mph - N/A   Clear
4:16 AM 60.8 °F 46.4 °F 59% 29.59 in 10.0 mi SSE 9.2 mph 16.1 mph N/A   Clear
4:36 AM 59.0 °F 46.4 °F 63% 29.59 in 10.0 mi SSE 11.5 mph - N/A   Clear
4:56 AM 57.2 °F 46.4 °F 67% 29.59 in 10.0 mi South 8.1 mph - N/A   Clear
5:16 AM 57.2 °F 46.4 °F 67% 29.59 in 10.0 mi South 9.2 mph - N/A   Clear
5:36 AM 57.2 °F 46.4 °F 67% 29.60 in 10.0 mi South 5.8 mph - N/A   Clear
5:55 AM 55.4 °F 46.4 °F 72% 29.60 in 10.0 mi SSE 6.9 mph - N/A   Clear
6:16 AM 55.4 °F 46.4 °F 72% 29.60 in 10.0 mi SSE 5.8 mph - N/A   Clear
6:36 AM 53.6 °F 46.4 °F 77% 29.60 in 10.0 mi South 6.9 mph - N/A   Clear
6:56 AM 53.6 °F 46.4 °F 77% 29.59 in 10.0 mi South 8.1 mph - N/A   Clear
7:16 AM 53.6 °F 46.4 °F 77% 29.59 in 10.0 mi South 5.8 mph - N/A   Clear
7:36 AM 53.6 °F 46.4 °F 77% 29.59 in 10.0 mi South 6.9 mph - N/A   Clear
7:56 AM 53.6 °F 46.4 °F 77% 29.59 in 10.0 mi South 5.8 mph - N/A   Clear
8:16 AM 55.4 °F 46.4 °F 72% 29.59 in 10.0 mi South 6.9 mph - N/A   Clear
8:36 AM 57.2 °F 48.2 °F 72% 29.59 in 10.0 mi South 6.9 mph - N/A   Clear
8:56 AM 57.2 °F 48.2 °F 72% 29.59 in 10.0 mi South 5.8 mph - N/A   Clear
9:17 AM 57.2 °F 48.2 °F 72% 29.58 in 10.0 mi South 5.8 mph - N/A   Clear
9:36 AM 60.8 °F 48.2 °F 63% 29.58 in 10.0 mi SSE 8.1 mph - N/A   Clear
9:56 AM 60.8 °F 48.2 °F 63% 29.58 in 10.0 mi South 6.9 mph - N/A   Clear
10:16 AM 62.6 °F 50.0 °F 63% 29.58 in 10.0 mi South 6.9 mph - N/A   Clear
10:36 AM 64.4 °F 50.0 °F 59% 29.58 in 10.0 mi South 9.2 mph - N/A   Clear
10:56 AM 64.4 °F 50.0 °F 59% 29.59 in 10.0 mi South 6.9 mph - N/A   Clear
11:16 AM 66.2 °F 51.8 °F 60% 29.58 in 10.0 mi South 5.8 mph - N/A   Clear
11:36 AM 66.2 °F 51.8 °F 60% 29.58 in 10.0 mi South 6.9 mph - N/A   Clear
11:56 AM 66.2 °F 51.8 °F 60% 29.58 in 10.0 mi South 6.9 mph - N/A   Clear
12:16 PM 68.0 °F 51.8 °F 56% 29.58 in 10.0 mi SE 6.9 mph - N/A   Clear
12:36 PM 68.0 °F 51.8 °F 56% 29.58 in 10.0 mi SSE 8.1 mph - N/A   Clear
12:56 PM 69.8 °F 51.8 °F 53% 29.58 in 10.0 mi SSE 8.1 mph - N/A   Clear
1:16 PM 69.8 °F 53.6 °F 56% 29.58 in 10.0 mi South 8.1 mph - N/A   Clear
1:36 PM 71.6 °F 53.6 °F 53% 29.58 in 10.0 mi SSE 8.1 mph - N/A   Clear
1:56 PM 71.6 °F 53.6 °F 53% 29.58 in 10.0 mi SSE 6.9 mph - N/A   Clear
2:15 PM 71.6 °F 53.6 °F 53% 29.58 in 10.0 mi SSE 8.1 mph - N/A   Clear
2:35 PM 71.6 °F 53.6 °F 53% 29.58 in 10.0 mi SSE 10.4 mph 16.1 mph N/A   Clear
2:55 PM 71.6 °F 53.6 °F 53% 29.58 in 10.0 mi SSE 8.1 mph - N/A   Clear
3:16 PM 71.6 °F 53.6 °F 53% 29.58 in 10.0 mi South 5.8 mph - N/A   Clear
3:36 PM 71.6 °F 53.6 °F 53% 29.58 in 10.0 mi South 8.1 mph - N/A   Clear
3:56 PM 73.4 °F 53.6 °F 50% 29.58 in 10.0 mi SSE 9.2 mph - N/A   Clear
4:15 PM 71.6 °F 53.6 °F 53% 29.57 in 10.0 mi SSE 9.2 mph - N/A   Clear
4:36 PM 71.6 °F 53.6 °F 53% 29.58 in 10.0 mi SSE 8.1 mph - N/A   Clear
4:55 PM 71.6 °F 53.6 °F 53% 29.58 in 10.0 mi South 9.2 mph - N/A   Clear
5:16 PM 71.6 °F 53.6 °F 53% 29.57 in 10.0 mi SSE 10.4 mph - N/A   Clear
5:36 PM 69.8 °F 53.6 °F 56% 29.57 in 10.0 mi SSE 6.9 mph - N/A   Clear
5:56 PM 68.0 °F 53.6 °F 60% 29.58 in 10.0 mi SSE 8.1 mph - N/A   Clear
6:15 PM 66.2 °F 53.6 °F 64% 29.58 in 10.0 mi SSE 5.8 mph - N/A   Clear
6:35 PM 64.4 °F 55.4 °F 73% 29.59 in 10.0 mi SSE 4.6 mph - N/A   Clear
6:55 PM 62.6 °F 55.4 °F 77% 29.58 in 10.0 mi SE 3.5 mph - N/A   Clear
7:16 PM 64.4 °F 55.4 °F 73% 29.58 in 10.0 mi SE 3.5 mph - N/A   Clear
7:36 PM 62.6 °F 55.4 °F 77% 29.59 in 10.0 mi Calm Calm - N/A   Clear
7:56 PM 62.6 °F 55.4 °F 77% 29.59 in 10.0 mi SE 3.5 mph - N/A   Clear
8:16 PM 62.6 °F 55.4 °F 77% 29.59 in 10.0 mi SE 5.8 mph - N/A   Clear
8:35 PM 60.8 °F 55.4 °F 82% 29.59 in 10.0 mi SSE 5.8 mph - N/A   Clear
8:56 PM 60.8 °F 55.4 °F 82% 29.59 in 10.0 mi SSE 4.6 mph - N/A   Clear
9:16 PM 60.8 °F 55.4 °F 82% 29.59 in 10.0 mi SE 6.9 mph - N/A   Clear
9:36 PM 60.8 °F 53.6 °F 77% 29.58 in 10.0 mi SE 4.6 mph - N/A   Clear
9:56 PM 62.6 °F 53.6 °F 72% 29.57 in 10.0 mi SE 3.5 mph - N/A   Clear
10:16 PM 62.6 °F 53.6 °F 72% 29.57 in 10.0 mi SE 4.6 mph - N/A   Clear
10:36 PM 62.6 °F 53.6 °F 72% 29.56 in 10.0 mi SE 6.9 mph - N/A   Clear
10:56 PM 62.6 °F 53.6 °F 72% 29.55 in 10.0 mi SE 8.1 mph - N/A   Clear
11:16 PM 60.8 °F 53.6 °F 77% 29.55 in 10.0 mi SE 4.6 mph - N/A   Clear
11:36 PM 60.8 °F 53.6 °F 77% 29.55 in 10.0 mi Calm Calm - N/A   Clear
11:56 PM 57.2 °F 53.6 °F 88% 29.54 in 10.0 mi Calm Calm - N/A   Clear